Tracking 28790 objects as of 19-Apr-2024
HD Live streaming from Space Station
objects crossing your sky now

OBJECT X

Track OBJECT X now!
10-day predictions


NORAD ID: 47953
Int'l Code: 2021-022X
Perigee: 508.6 km
Apogee: 531.0 km
Inclination: 97.5 °
Period: 94.9 minutes
Semi major axis: 6890 km
RCS: Unknown
Launch date: March 22, 2021
Source: (TBD)
Launch site: TYURATAM MISSILE AND SPACE COMPLEX (TTMTR)

Note: This is a ROCKET BODY
Your satellite tracking list
Your tracking list is empty




NASA's NSSDC Master Catalog

Two Line Element Set (TLE):
1 47953U 21022X   24109.86524993  .00020913  00000-0  10337-2 0  9998
2 47953  97.4643   6.0992 0016287   3.3307 356.8032 15.17750373169135
Source of the keplerian elements: AFSPC